This is the latest recevied weather packets stored in our database for station/object NK0Z-13. If no packets are shown the sender has not sent any weather packets the latest 10 day(s).
| Time | Temp. | Humidity | Pressure | Rain* | Wind** | Luminosity | Snow |
|---|---|---|---|---|---|---|---|
| 1777827617 | 27.78° C | 24% | 1014.9 hPa | 0 mm | - | 774 W/m² | - |
| 1777827017 | 27.22° C | 27% | 1015.2 hPa | 0 mm | - | 758 W/m² | - |
| 1777826416 | 26.11° C | 29% | 1015.1 hPa | 0 mm | - | 741 W/m² | - |
| 1777825816 | 26.11° C | 30% | 1015.6 hPa | 0 mm | - | 722 W/m² | - |
| 1777825211 | 25° C | 33% | 1015.7 hPa | 0 mm | - | 703 W/m² | - |
| 1777824610 | 24.44° C | 34% | 1015.9 hPa | 0 mm | - | 677 W/m² | - |
| 1777824009 | 23.89° C | 34% | 1015.9 hPa | 0 mm | - | 652 W/m² | - |
| 1777823408 | 23.33° C | 37% | 1015.6 hPa | 0 mm | - | 621 W/m² | - |
| 1777822803 | 23.33° C | 38% | 1015.9 hPa | 0 mm | - | 598 W/m² | - |
| 1777822198 | 21.67° C | 42% | 1015.5 hPa | 0 mm | - | 574 W/m² | - |
| 1777821593 | 20.56° C | 44% | 1015.6 hPa | 0 mm | - | 546 W/m² | - |
| 1777820988 | 20° C | 46% | 1016 hPa | 0 mm | - | 515 W/m² | - |
| 1777820386 | 19.44° C | 47% | 1016.3 hPa | 0 mm | - | 487 W/m² | - |
| 1777819781 | 18.89° C | 50% | 1016.3 hPa | 0 mm | - | 456 W/m² | - |
| 1777819177 | 18.33° C | 50% | 1016.5 hPa | 0 mm | - | 426 W/m² | - |
| 1777818575 | 17.78° C | 54% | 1016.4 hPa | 0 mm | - | 395 W/m² | - |
| 1777817974 | 16.67° C | 56% | 1016.6 hPa | 0 mm | - | 358 W/m² | - |
| 1777817369 | 15.56° C | 58% | 1016.5 hPa | 0 mm | - | 330 W/m² | - |
| 1777816767 | 15.56° C | 61% | 1016.5 hPa | 0 mm | - | 300 W/m² | - |
| 1777816163 | 14.44° C | 63% | 1016.4 hPa | 0 mm | - | 274 W/m² | - |
| 1777815564 | 13.33° C | 66% | 1016.7 hPa | 0 mm | - | 248 W/m² | - |
| 1777814962 | 12.22° C | 68% | 1016.7 hPa | 0 mm | - | 220 W/m² | - |
| 1777814361 | 12.22° C | 69% | 1016.8 hPa | 0 mm | - | 192 W/m² | - |
| 1777813761 | 11.11° C | 71% | 1016.9 hPa | 0 mm | - | 165 W/m² | - |
| 1777813161 | 10.56° C | 72% | 1016.7 hPa | 0 mm | - | 136 W/m² | - |
* Rain latest hour (hover to see other rain measurements)
** Current wind speed in m/s (hover to see current wind gust speed)